When you browse on this site, cookies collect data to enhance your experience and personalize the content and advertising you see.
Visit our Privacy Policy to learn more. By continuing to use the site, you agree to this use of cookies and data.
  • In Czech Republic
  • List of Countries
  • For 7 days
  • Water Temperature
  • Weather Map
  • Weather Widgets
  • user-avatar
    Login

    Hourly Weather Goteborg

    Today, 2 June, Tuesday

    Time Temperature Precipitation Wind Pressure Humidity
    00:00 +14°C° 0 mm 2 mps 766 mmHg 59%
    01:00 +13°C° 0 mm 1 mps 766 mmHg 60%
    02:00 +13°C° 0 mm 1 mps 765 mmHg 61%
    03:00 +13°C° 0 mm 1 mps 765 mmHg 61%
    04:00 +12°C° 0 mm 1 mps 764 mmHg 62%
    05:00 +15°C° 0 mm 1 mps 764 mmHg 57%
    06:00 +17°C° 0 mm 2 mps 764 mmHg 53%
    07:00 +19°C° 0 mm 2 mps 764 mmHg 48%
    08:00 +20°C° 0 mm 2 mps 763 mmHg 43%
    09:00 +21°C° 0 mm 3 mps 763 mmHg 38%
    10:00 +22°C° 0 mm 3 mps 763 mmHg 33%
    11:00 +24°C° 0 mm 3 mps 762 mmHg 32%
    12:00 +24°C° 0 mm 3 mps 762 mmHg 31%
    13:00 +24°C° 0 mm 3 mps 761 mmHg 30%
    14:00 +22°C° 0 mm 3 mps 761 mmHg 31%
    15:00 +22°C° 0 mm 3 mps 760 mmHg 32%
    16:00 +21°C° 0 mm 3 mps 759 mmHg 33%
    17:00 +20°C° 0 mm 3 mps 759 mmHg 38%
    18:00 +19°C° 0 mm 3 mps 759 mmHg 43%
    19:00 +18°C° 0 mm 2 mps 758 mmHg 47%
    20:00 +16°C° 0 mm 2 mps 758 mmHg 55%
    21:00 +14°C° 0 mm 2 mps 758 mmHg 63%
    22:00 +12°C° 0 mm 2 mps 758 mmHg 71%
    23:00 +10°C° 0 mm 2 mps 758 mmHg 73%

    Tomorrow, 3 June, Wednesday

    Time Temperature Precipitation Wind Pressure Humidity
    00:00 +10°C° 0 mm 2 mps 757 mmHg 76%
    01:00 +9°C° 0 mm 2 mps 757 mmHg 78%
    02:00 +9°C° 0 mm 2 mps 757 mmHg 78%
    03:00 +9°C° 0 mm 2 mps 757 mmHg 79%
    04:00 +9°C° 0 mm 2 mps 756 mmHg 80%
    05:00 +12°C° 0 mm 2 mps 756 mmHg 72%
    06:00 +14°C° 0 mm 2 mps 756 mmHg 64%
    07:00 +16°C° 0 mm 2 mps 756 mmHg 56%
    08:00 +18°C° 0 mm 2 mps 756 mmHg 50%
    09:00 +20°C° 0 mm 2 mps 756 mmHg 44%
    10:00 +21°C° 0 mm 2 mps 756 mmHg 38%
    11:00 +22°C° 0 mm 3 mps 755 mmHg 37%
    12:00 +22°C° 0 mm 3 mps 755 mmHg 36%
    13:00 +22°C° 0 mm 3 mps 755 mmHg 36%
    14:00 +22°C° 0 mm 3 mps 755 mmHg 36%
    15:00 +23°C° 0 mm 2 mps 754 mmHg 37%
    16:00 +21°C° 0 mm 2 mps 754 mmHg 37%
    17:00 +20°C° 0 mm 2 mps 753 mmHg 41%
    18:00 +20°C° 0 mm 1 mps 753 mmHg 45%
    19:00 +19°C° 0 mm 1 mps 753 mmHg 49%
    20:00 +16°C° 0 mm 1 mps 753 mmHg 54%
    21:00 +14°C° 0 mm 2 mps 753 mmHg 60%
    22:00 +12°C° 0 mm 2 mps 753 mmHg 65%
    23:00 +12°C° 0 mm 2 mps 753 mmHg 69%

    Day after tomorrow, 4 June, Thursday

    Time Temperature Precipitation Wind Pressure Humidity
    00:00 +11°C° 0 mm 3 mps 753 mmHg 73%
    01:00 +10°C° 0 mm 3 mps 753 mmHg 77%
    02:00 +10°C° 0 mm 3 mps 752 mmHg 76%
    03:00 +10°C° 0 mm 4 mps 752 mmHg 76%
    04:00 +10°C° 0 mm 4 mps 751 mmHg 75%
    05:00 +11°C° 0 mm 4 mps 751 mmHg 68%
    06:00 +12°C° 0 mm 4 mps 751 mmHg 61%
    07:00 +13°C° 0 mm 4 mps 751 mmHg 54%
    08:00 +16°C° 0 mm 3 mps 750 mmHg 49%
    09:00 +17°C° 0 mm 3 mps 750 mmHg 44%
    10:00 +19°C° 0 mm 3 mps 750 mmHg 39%
    11:00 +20°C° 0 mm 3 mps 750 mmHg 36%
    12:00 +21°C° 0 mm 3 mps 749 mmHg 32%
    13:00 +22°C° 0 mm 3 mps 749 mmHg 29%
    14:00 +22°C° 0 mm 3 mps 748 mmHg 32%
    15:00 +22°C° 0 mm 3 mps 748 mmHg 35%
    16:00 +22°C° 0 mm 3 mps 747 mmHg 39%
    17:00 +21°C° 0 mm 3 mps 747 mmHg 42%
    18:00 +20°C° 0 mm 3 mps 747 mmHg 46%
    19:00 +19°C° 0 mm 4 mps 746 mmHg 49%
    20:00 +18°C° 0 mm 4 mps 746 mmHg 51%
    21:00 +16°C° 0 mm 5 mps 746 mmHg 53%
    22:00 +15°C° 0 mm 5 mps 746 mmHg 56%
    23:00 +14°C° 0 mm 6 mps 746 mmHg 60%

    5 June, Friday

    Time Temperature Precipitation Wind Pressure Humidity
    00:00 +13°C° 0 mm 6 mps 746 mmHg 64%
    01:00 +11°C° 0 mm 6 mps 746 mmHg 68%
    02:00 +11°C° 0 mm 7 mps 746 mmHg 68%
    03:00 +11°C° 0 mm 7 mps 746 mmHg 69%
    04:00 +11°C° 0 mm 7 mps 745 mmHg 69%
    05:00 +12°C° 0 mm 7 mps 745 mmHg 67%
    06:00 +14°C° 0 mm 6 mps 745 mmHg 65%
    07:00 +15°C° 0 mm 6 mps 745 mmHg 62%
    08:00 +16°C° 0.1 mm 5 mps 745 mmHg 56%
    09:00 +19°C° 0.1 mm 5 mps 745 mmHg 50%
    10:00 +20°C° 0.1 mm 5 mps 745 mmHg 44%
    11:00 +20°C° 0.2 mm 4 mps 745 mmHg 46%
    12:00 +20°C° 0.2 mm 3 mps 745 mmHg 48%
    13:00 +20°C° 0.2 mm 3 mps 745 mmHg 50%
    14:00 +18°C° 0.6 mm 3 mps 745 mmHg 64%
    15:00 +16°C° 0.6 mm 3 mps 744 mmHg 77%
    16:00 +14°C° 0.6 mm 3 mps 744 mmHg 90%
    17:00 +13°C° 0.6 mm 3 mps 744 mmHg 92%
    18:00 +13°C° 0.6 mm 3 mps 744 mmHg 94%
    19:00 +13°C° 0.6 mm 4 mps 744 mmHg 96%
    20:00 +12°C° 0.5 mm 4 mps 744 mmHg 96%
    21:00 +12°C° 0.5 mm 3 mps 744 mmHg 97%
    22:00 +12°C° 0.5 mm 3 mps 744 mmHg 98%
    23:00 +11°C° 1.3 mm 3 mps 744 mmHg 97%

    6 June, Saturday

    Time Temperature Precipitation Wind Pressure Humidity
    00:00 +11°C° 1.3 mm 4 mps 743 mmHg 97%
    01:00 +11°C° 1.3 mm 4 mps 743 mmHg 96%
    02:00 +10°C° 0.1 mm 4 mps 743 mmHg 96%
    03:00 +9°C° 0.1 mm 5 mps 743 mmHg 97%
    04:00 +9°C° 0.1 mm 5 mps 743 mmHg 97%
    05:00 +9°C° 0.1 mm 6 mps 743 mmHg 94%
    06:00 +10°C° 0.1 mm 6 mps 743 mmHg 90%
    07:00 +11°C° 0.1 mm 7 mps 743 mmHg 87%
    08:00 +12°C° 0.1 mm 7 mps 744 mmHg 82%
    09:00 +13°C° 0.1 mm 8 mps 744 mmHg 76%
    10:00 +13°C° 0.1 mm 8 mps 744 mmHg 70%
    11:00 +15°C° 0.2 mm 8 mps 745 mmHg 66%
    12:00 +15°C° 0.2 mm 8 mps 745 mmHg 62%
    13:00 +16°C° 0.2 mm 8 mps 745 mmHg 58%
    14:00 +15°C° 0.2 mm 8 mps 746 mmHg 59%
    15:00 +15°C° 0.2 mm 7 mps 746 mmHg 61%
    16:00 +14°C° 0.2 mm 7 mps 746 mmHg 62%
    17:00 +14°C° 0.2 mm 6 mps 746 mmHg 67%
    18:00 +13°C° 0.2 mm 5 mps 747 mmHg 71%
    19:00 +12°C° 0.2 mm 4 mps 747 mmHg 76%
    20:00 +11°C° 0.1 mm 4 mps 747 mmHg 79%
    21:00 +10°C° 0.1 mm 4 mps 748 mmHg 83%
    22:00 +9°C° 0.1 mm 3 mps 748 mmHg 87%
    23:00 +9°C° 1.1 mm 3 mps 748 mmHg 90%

    7 June, Sunday

    Time Temperature Precipitation Wind Pressure Humidity
    00:00 +9°C° 1.1 mm 2 mps 748 mmHg 93%
    01:00 +9°C° 1.1 mm 2 mps 748 mmHg 96%
    02:00 +9°C° 0.4 mm 2 mps 748 mmHg 96%
    03:00 +9°C° 0.4 mm 2 mps 748 mmHg 97%
    04:00 +9°C° 0.4 mm 3 mps 748 mmHg 97%
    05:00 +9°C° 0 mm 3 mps 748 mmHg 92%
    06:00 +10°C° 0 mm 4 mps 749 mmHg 86%
    07:00 +11°C° 0 mm 4 mps 749 mmHg 81%
    08:00 +12°C° 0 mm 5 mps 749 mmHg 71%
    09:00 +14°C° 0 mm 5 mps 749 mmHg 61%
    10:00 +15°C° 0 mm 5 mps 750 mmHg 51%
    11:00 +15°C° 0 mm 6 mps 750 mmHg 49%
    12:00 +16°C° 0 mm 7 mps 750 mmHg 47%
    13:00 +16°C° 0 mm 7 mps 750 mmHg 46%
    14:00 +16°C° 0 mm 7 mps 750 mmHg 47%
    15:00 +16°C° 0 mm 7 mps 750 mmHg 48%
    16:00 +16°C° 0 mm 7 mps 751 mmHg 50%
    17:00 +15°C° 0 mm 6 mps 751 mmHg 54%
    18:00 +14°C° 0 mm 6 mps 751 mmHg 58%
    19:00 +13°C° 0 mm 6 mps 751 mmHg 62%
    20:00 +12°C° 0.1 mm 5 mps 752 mmHg 71%
    21:00 +10°C° 0.1 mm 4 mps 752 mmHg 80%
    22:00 +8°C° 0.1 mm 4 mps 753 mmHg 89%
    23:00 +7°C° 0.2 mm 4 mps 753 mmHg 91%
    Show more